BG4WDV-11 Weather Reports


time (UTC)temp
F
wind
direction
speed
knots
gust
knots
rain 1hr
in
rain 24hr
in
rain mn
in
humidity
%
barometer
mb
20260505041737 86 180 1.7 3.5 0.00 0.00 0.00 42 1010.9
20260505041637 86 180 2.6 3.5 0.00 0.00 0.00 42 1011.1
20260505041437 86 180 1.7 3.5 0.00 0.00 0.00 42 1010.9
20260505041337 86 0 1.7 3.5 0.00 0.00 0.00 42 1010.9
20260505041237 86 90 0.9 3.5 0.00 0.00 0.00 42 1011.0
20260505041137 86 0 0.0 3.5 0.00 0.00 0.00 42 1011.0
20260505041037 86 180 0.0 3.5 0.00 0.00 0.00 42 1010.9
20260505040937 86 2 3.5 0.0 0.00 0.00 0.00 42 1011.1
20260505040837 87 0 1.7 3.5 0.00 0.00 0.00 41 1011.1
20260505040737 87 0 0.9 3.5 0.00 0.00 0.00 41 1011.1
20260505040637 87 0 0.0 3.5 0.00 0.00 0.00 41 1011.1
20260505040537 87 225 0.9 3.5 0.00 0.00 0.00 41 1011.1
20260505040437 87 0 1.7 3.5 0.00 0.00 0.00 40 1011.1
20260505040337 88 315 0.9 3.5 0.00 0.00 0.00 41 1011.2
20260505040237 88 0 0.0 3.5 0.00 0.00 0.00 40 1011.2
20260505040137 88 225 0.0 3.5 0.00 0.00 0.00 40 1011.1
20260505040037 88 0 0.0 3.5 0.00 0.00 0.00 40 1011.1
20260505035937 88 0 0.0 4.3 0.00 0.00 0.00 40 1011.2
20260505035837 88 0 0.0 4.3 0.00 0.00 0.00 40 1011.2
20260505035737 88 0 0.0 4.3 0.00 0.00 0.00 41 1011.1
20260505035637 88 0 0.0 4.3 0.00 0.00 0.00 41 1011.2
20260505035537 87 180 0.0 4.3 0.00 0.00 0.00 41 1011.2
20260505035437 87 225 0.0 4.3 0.00 0.00 0.00 42 1011.2
20260505035337 87 0 0.0 4.3 0.00 0.00 0.00 42 1011.2
20260505035237 87 225 0.9 4.3 0.00 0.00 0.00 41 1011.2
20260505035137 87 225 1.7 4.3 0.00 0.00 0.00 42 1011.2
20260505035037 87 0 2.6 4.3 0.00 0.00 0.00 42 1011.3
20260505034937 86 180 2.6 4.3 0.00 0.00 0.00 42 1011.2
20260505034737 86 180 0.0 4.3 0.00 0.00 0.00 41 1011.3
20260505034637 86 45 0.0 4.3 0.00 0.00 0.00 41 1011.2
20260505034537 86 0 0.0 4.3 0.00 0.00 0.00 41 1011.3
20260505034437 86 225 0.9 4.3 0.00 0.00 0.00 41 1011.4
20260505034337 86 225 0.0 4.3 0.00 0.00 0.00 41 1011.3
20260505034237 86 225 0.9 4.3 0.00 0.00 0.00 40 1011.4
20260505034137 87 225 1.7 4.3 0.00 0.00 0.00 40 1011.5
20260505034037 87 0 1.7 4.3 0.00 0.00 0.00 40 1011.4
20260505033937 87 0 0.9 4.3 0.00 0.00 0.00 40 1011.4
20260505033837 87 225 0.9 4.3 0.00 0.00 0.00 40 1011.5
20260505033737 87 0 0.9 4.3 0.00 0.00 0.00 40 1011.5
20260505033637 87 225 1.7 4.3 0.00 0.00 0.00 40 1011.5
20260505033537 87 0 1.7 4.3 0.00 0.00 0.00 41 1011.5
20260505033437 87 0 0.0 4.3 0.00 0.00 0.00 40 1011.5
20260505033337 87 225 0.0 4.3 0.00 0.00 0.00 42 1011.6
20260505033237 86 0 0.0 4.3 0.00 0.00 0.00 42 1011.4
20260505033137 86 225 0.0 4.3 0.00 0.00 0.00 42 1011.5
20260505033037 86 0 0.9 4.3 0.00 0.00 0.00 42 1011.4
20260505032937 86 0 0.9 5.2 0.00 0.00 0.00 41 1011.5
20260505032837 86 0 0.9 5.2 0.00 0.00 0.00 42 1011.5
20260505032737 86 0 0.9 5.2 0.00 0.00 0.00 43 1011.5
20260505032637 86 315 1.7 5.2 0.00 0.00 0.00 42 1011.6
20260505032537 86 0 0.9 5.2 0.00 0.00 0.00 42 1011.6
20260505032437 86 0 0.0 5.2 0.00 0.00 0.00 43 1011.7
20260505032337 86 225 0.0 5.2 0.00 0.00 0.00 43 1011.6
20260505032237 86 225 0.9 5.2 0.00 0.00 0.00 43 1011.5
20260505032137 86 225 2.6 5.2 0.00 0.00 0.00 43 1011.7
20260505032037 86 0 2.6 5.2 0.00 0.00 0.00 43 1011.7
20260505031937 86 45 0.9 4.3 0.00 0.00 0.00 43 1011.8
20260505031837 86 0 0.0 4.3 0.00 0.00 0.00 43 1011.8
20260505031737 86 225 0.0 4.3 0.00 0.00 0.00 43 1011.6
20260505031637 86 225 0.9 4.3 0.00 0.00 0.00 42 1011.5
20260505031537 86 225 1.7 4.3 0.00 0.00 0.00 42 1011.8
20260505031437 86 225 1.7 5.2 0.00 0.00 0.00 42 1011.7
20260505031337 86 0 2.6 5.2 0.00 0.00 0.00 41 1011.7
20260505031237 87 0 1.7 5.2 0.00 0.00 0.00 41 1011.7
20260505031137 87 45 0.9 5.2 0.00 0.00 0.00 41 1011.8
20260505031037 86 225 1.7 5.2 0.00 0.00 0.00 42 1011.8
20260505030937 86 225 1.7 5.2 0.00 0.00 0.00 41 1011.7
20260505030837 86 180 1.7 5.2 0.00 0.00 0.00 42 1011.7
20260505030737 86 0 1.7 5.2 0.00 0.00 0.00 41 1011.7
20260505030636 86 0 2.6 5.2 0.00 0.00 0.00 41 1011.8
20260505030537 87 45 1.7 5.2 0.00 0.00 0.00 41 1011.8
20260505030437 87 180 0.0 3.5 0.00 0.00 0.00 41 1012.0
20260505030337 87 0 0.0 3.5 0.00 0.00 0.00 40 1012.0
20260505030237 87 0 0.0 3.5 0.00 0.00 0.00 40 1011.8
20260505030137 87 0 1.7 3.5 0.00 0.00 0.00 39 1011.9
20260505025936 88 0 0.0 3.5 0.00 0.00 0.00 39 1012.0
20260505025837 88 225 0.0 3.5 0.00 0.00 0.00 39 1011.9
20260505025737 87 0 0.9 3.5 0.00 0.00 0.00 40 1011.8
20260505025636 87 0 0.0 4.3 0.00 0.00 0.00 39 1012.1
20260505025537 87 225 0.0 4.3 0.00 0.00 0.00 39 1011.9
20260505025437 86 0 0.0 4.3 0.00 0.00 0.00 39 1012.0
20260505025337 86 0 0.0 4.3 0.00 0.00 0.00 38 1011.9
20260505025236 86 225 0.9 4.3 0.00 0.00 0.00 38 1011.9
20260505025137 86 0 0.9 4.3 0.00 0.00 0.00 38 1012.0
20260505025037 86 0 0.0 4.3 0.00 0.00 0.00 38 1012.1
20260505024937 87 0 0.9 4.3 0.00 0.00 0.00 38 1012.0
20260505024837 87 225 1.7 4.3 0.00 0.00 0.00 37 1012.0
20260505024737 87 225 1.7 4.3 0.00 0.00 0.00 37 1012.1
20260505024637 87 0 1.7 3.5 0.00 0.00 0.00 37 1012.1
20260505024536 87 0 0.9 3.5 0.00 0.00 0.00 37 1012.1
20260505024437 87 180 0.0 3.5 0.00 0.00 0.00 38 1012.1
20260505024337 87 0 0.9 3.5 0.00 0.00 0.00 38 1012.2
20260505024236 87 0 0.9 3.5 0.00 0.00 0.00 38 1012.2
20260505024136 86 0 0.9 3.5 0.00 0.00 0.00 39 1012.2
20260505024037 86 0 0.9 3.5 0.00 0.00 0.00 39 1012.1
20260505023937 86 0 0.0 3.5 0.00 0.00 0.00 39 1012.3
20260505023836 86 180 0.9 3.5 0.00 0.00 0.00 39 1012.2
20260505023737 86 315 0.0 3.5 0.00 0.00 0.00 40 1012.2
20260505023637 85 0 0.0 3.5 0.00 0.00 0.00 39 1012.2
20260505023536 86 45 0.0 3.5 0.00 0.00 0.00 39 1012.3
20260505023436 86 225 0.9 3.5 0.00 0.00 0.00 40 1012.2
20260505023337 86 0 0.9 3.5 0.00 0.00 0.00 39 1012.2
20260505023237 86 0 0.9 3.5 0.00 0.00 0.00 40 1012.1
20260505023136 86 225 0.0 3.5 0.00 0.00 0.00 41 1012.3
20260505023037 86 180 0.0 3.5 0.00 0.00 0.00 42 1012.3
20260505022937 86 0 0.0 3.5 0.00 0.00 0.00 41 1012.1
20260505022837 85 0 0.0 3.5 0.00 0.00 0.00 41 1012.3
20260505022736 85 180 0.0 3.5 0.00 0.00 0.00 42 1012.1
20260505022637 84 225 0.0 3.5 0.00 0.00 0.00 42 1012.2
20260505022537 84 180 0.0 3.5 0.00 0.00 0.00 43 1012.2
20260505022437 84 180 0.9 3.5 0.00 0.00 0.00 43 1012.3
20260505022336 84 225 1.7 3.5 0.00 0.00 0.00 43 1012.3
20260505022237 84 225 0.9 3.5 0.00 0.00 0.00 44 1012.3
20260505022137 84 225 0.9 3.5 0.00 0.00 0.00 43 1012.2
20260505021937 84 0 0.0 3.5 0.00 0.00 0.00 43 1012.4
20260505021837 84 225 0.0 3.5 0.00 0.00 0.00 43 1012.3
20260505021737 84 0 0.9 3.5 0.00 0.00 0.00 43 1012.4
20260505021636 84 225 0.9 3.5 0.00 0.00 0.00 42 1012.3
20260505021537 84 225 0.9 3.5 0.00 0.00 0.00 42 1012.4
20260505021437 85 225 1.7 3.5 0.00 0.00 0.00 42 1012.4
20260505021336 85 225 0.9 3.5 0.00 0.00 0.00 43 1012.4
20260505021237 85 0 0.9 3.5 0.00 0.00 0.00 43 1012.3
20260505021137 85 0 1.7 3.5 0.00 0.00 0.00 43 1012.4
20260505021037 85 0 0.9 2.6 0.00 0.00 0.00 44 1012.4
20260505020936 85 0 0.0 3.5 0.00 0.00 0.00 44 1012.5
20260505020836 85 0 0.0 3.5 0.00 0.00 0.00 45 1012.4
20260505020737 84 225 0.0 3.5 0.00 0.00 0.00 45 1012.4
20260505020637 84 180 0.0 3.5 0.00 0.00 0.00 45 1012.4
20260505020536 84 180 0.0 3.5 0.00 0.00 0.00 45 1012.3
20260505020436 84 225 0.0 3.5 0.00 0.00 0.00 45 1012.3
20260505020337 84 0 0.9 3.5 0.00 0.00 0.00 47 1012.4
20260505020236 83 225 1.7 3.5 0.00 0.00 0.00 47 1012.4
20260505020136 83 180 0.9 3.5 0.00 0.00 0.00 47 1012.4
20260505020036 83 0 0.0 3.5 0.00 0.00 0.00 47 1012.2
20260505015937 83 0 0.0 2.6 0.00 0.00 0.00 46 1012.4
20260505015836 83 0 0.0 2.6 0.00 0.00 0.00 46 1012.3
20260505015736 83 225 0.0 2.6 0.00 0.00 0.00 46 1012.3
20260505015636 83 225 0.0 2.6 0.00 0.00 0.00 46 1012.4
20260505015537 83 225 0.0 2.6 0.00 0.00 0.00 46 1012.4
20260505015437 83 225 0.0 2.6 0.00 0.00 0.00 45 1012.3
20260505015337 83 225 0.0 2.6 0.00 0.00 0.00 45 1012.4
20260505015237 83 225 0.0 3.5 0.00 0.00 0.00 45 1012.4
20260505015137 83 225 0.0 3.5 0.00 0.00 0.00 45 1012.4
20260505015037 83 225 0.9 3.5 0.00 0.00 0.00 46 1012.3
20260505014937 83 225 0.0 3.5 0.00 0.00 0.00 47 1012.4
20260505014837 83 0 0.0 3.5 0.00 0.00 0.00 47 1012.5
20260505014737 82 225 0.0 3.5 0.00 0.00 0.00 47 1012.3
20260505014637 82 225 0.0 3.5 0.00 0.00 0.00 47 1012.3
20260505014537 82 225 0.9 3.5 0.00 0.00 0.00 48 1012.4
20260505014437 82 0 1.7 3.5 0.00 0.00 0.00 48 1012.3
20260505014337 82 180 1.7 3.5 0.00 0.00 0.00 48 1012.3
20260505014237 82 0 0.9 2.6 0.00 0.00 0.00 48 1012.4
20260505014136 82 180 0.0 2.6 0.00 0.00 0.00 48 1012.4
20260505014036 82 0 0.0 2.6 0.00 0.00 0.00 47 1012.4
20260505013937 82 225 0.0 2.6 0.00 0.00 0.00 47 1012.4
20260505013837 82 225 0.0 2.6 0.00 0.00 0.00 47 1012.4
20260505013736 82 180 0.0 2.6 0.00 0.00 0.00 47 1012.5
20260505013636 82 225 0.0 2.6 0.00 0.00 0.00 47 1012.2
20260505013536 82 0 0.0 2.6 0.00 0.00 0.00 48 1012.5
20260505013436 82 180 0.0 2.6 0.00 0.00 0.00 47 1012.4
20260505013336 82 180 0.0 2.6 0.00 0.00 0.00 48 1012.5
20260505013236 81 0 0.0 2.6 0.00 0.00 0.00 49 1012.4
20260505013136 81 225 0.0 2.6 0.00 0.00 0.00 49 1012.4
20260505013036 81 0 0.0 2.6 0.00 0.00 0.00 49 1012.4
20260505012937 81 180 0.0 2.6 0.00 0.00 0.00 48 1012.5
20260505012836 81 180 0.0 2.6 0.00 0.00 0.00 48 1012.5
20260505012736 81 225 0.0 2.6 0.00 0.00 0.00 49 1012.6
20260505012636 81 225 0.0 2.6 0.00 0.00 0.00 48 1012.4
20260505012536 81 225 0.0 2.6 0.00 0.00 0.00 48 1012.5
20260505012436 81 225 0.0 2.6 0.00 0.00 0.00 48 1012.6
20260505012336 81 225 0.0 2.6 0.00 0.00 0.00 48 1012.4
20260505012237 81 225 0.0 1.7 0.00 0.00 0.00 49 1012.5
20260505012137 81 0 0.0 1.7 0.00 0.00 0.00 49 1012.5
20260505012036 82 0 0.0 1.7 0.00 0.00 0.00 49 1012.4
20260505011936 82 0 0.0 1.7 0.00 0.00 0.00 50 1012.3
20260505011836 81 180 0.0 2.6 0.00 0.00 0.00 50 1012.4
20260505011737 82 180 0.0 2.6 0.00 0.00 0.00 50 1012.3
20260505011636 81 180 0.0 2.6 0.00 0.00 0.00 50 1012.4
20260505011536 81 180 0.0 2.6 0.00 0.00 0.00 51 1012.5
20260505011436 81 0 0.0 2.6 0.00 0.00 0.00 51 1012.4
20260505011336 81 180 0.0 2.6 0.00 0.00 0.00 52 1012.4
20260505011237 81 180 0.0 2.6 0.00 0.00 0.00 51 1012.5
20260505011136 80 180 0.0 2.6 0.00 0.00 0.00 51 1012.3
20260505011036 80 180 0.0 2.6 0.00 0.00 0.00 51 1012.4
20260505010936 80 0 0.9 2.6 0.00 0.00 0.00 51 1012.4
20260505010836 80 180 0.0 2.6 0.00 0.00 0.00 52 1012.4
20260505010636 80 0 0.0 1.7 0.00 0.00 0.00 52 1012.3
20260505010536 79 225 0.0 1.7 0.00 0.00 0.00 52 1012.5
20260505010437 79 0 1.7 0.0 0.00 0.00 0.00 53 1012.4
20260505010336 79 225 0.0 1.7 0.00 0.00 0.00 53 1012.4
20260505010236 79 0 0.0 1.7 0.00 0.00 0.00 53 1012.4
20260505010136 79 180 0.0 1.7 0.00 0.00 0.00 54 1012.3
20260505010036 78 225 0.0 2.6 0.00 0.00 0.00 55 1012.4
20260505005937 78 180 0.0 2.6 0.00 0.00 0.00 55 1012.5
20260505005836 78 0 0.0 2.6 0.00 0.00 0.00 55 1012.5
20260505005736 78 180 0.0 2.6 0.00 0.00 0.00 55 1012.3
20260505005636 78 180 0.0 2.6 0.00 0.00 0.00 55 1012.4
20260505005536 78 180 0.0 2.6 0.00 0.00 0.00 55 1012.6
20260505005436 78 180 0.0 2.6 0.00 0.00 0.00 55 1012.4
20260505005336 78 0 0.0 2.6 0.00 0.00 0.00 55 1012.4
20260505005236 78 180 0.0 2.6 0.00 0.00 0.00 55 1012.4
20260505005136 77 180 0.0 2.6 0.00 0.00 0.00 55 1012.4
20260505005036 77 180 0.0 2.6 0.00 0.00 0.00 55 1012.4
20260505004936 77 180 0.0 2.6 0.00 0.00 0.00 55 1012.4
20260505004836 77 0 0.0 2.6 0.00 0.00 0.00 55 1012.4
20260505004736 77 0 0.0 2.6 0.00 0.00 0.00 56 1012.4
20260505004636 77 180 0.0 2.6 0.00 0.00 0.00 57 1012.3
20260505004536 76 180 0.0 2.6 0.00 0.00 0.00 57 1012.4
20260505004436 76 225 0.0 2.6 0.00 0.00 0.00 58 1012.3
20260505004336 76 90 0.0 2.6 0.00 0.00 0.00 58 1012.4
20260505004236 76 0 0.0 2.6 0.00 0.00 0.00 58 1012.4
20260505004136 75 180 0.0 2.6 0.00 0.00 0.00 58 1012.4
20260505004036 75 180 0.0 2.6 0.00 0.00 0.00 58 1012.3
20260505003936 75 0 0.0 3.5 0.00 0.00 0.00 58 1012.4
20260505003836 75 0 0.0 3.5 0.00 0.00 0.00 58 1012.5
20260505003736 75 225 0.0 3.5 0.00 0.00 0.00 59 1012.4
20260505003636 75 0 0.0 3.5 0.00 0.00 0.00 59 1012.4
20260505003536 75 0 0.0 3.5 0.00 0.00 0.00 59 1012.4
20260505003436 74 0 0.0 3.5 0.00 0.00 0.00 59 1012.3
20260505003336 74 180 0.9 3.5 0.00 0.00 0.00 59 1012.3
20260505003236 74 0 0.9 3.5 0.00 0.00 0.00 59 1012.4
20260505003136 74 0 1.7 3.5 0.00 0.00 0.00 59 1012.3
20260505003036 74 0 1.7 3.5 0.00 0.00 0.00 58 1012.4
20260505002936 74 0 1.7 3.5 0.00 0.00 0.00 58 1012.5
20260505002836 75 0 0.9 3.5 0.00 0.00 0.00 58 1012.4
20260505002736 75 0 0.0 2.6 0.00 0.00 0.00 59 1012.4
20260505002636 75 180 0.0 2.6 0.00 0.00 0.00 59 1012.4
20260505002536 75 0 0.0 2.6 0.00 0.00 0.00 59 1012.4
20260505002436 75 0 0.9 2.6 0.00 0.00 0.00 59 1012.3
20260505002336 75 180 0.9 2.6 0.00 0.00 0.00 59 1012.3
20260505002236 75 180 0.9 2.6 0.00 0.00 0.00 60 1012.2
20260505002136 75 180 0.9 2.6 0.00 0.00 0.00 60 1012.3
20260505002036 74 180 0.9 2.6 0.00 0.00 0.00 61 1012.5
20260505001936 74 180 0.9 2.6 0.00 0.00 0.00 60 1012.3
20260505001836 74 180 0.0 2.6 0.00 0.00 0.00 60 1012.3
20260505001736 74 180 0.0 2.6 0.00 0.00 0.00 60 1012.4
20260505001636 74 180 0.0 2.6 0.00 0.00 0.00 61 1012.5
20260505001536 74 180 0.0 2.6 0.00 0.00 0.00 61 1012.3
20260505001436 74 0 0.0 2.6 0.00 0.00 0.00 61 1012.3
20260505001336 74 0 0.0 2.6 0.00 0.00 0.00 61 1012.4
20260505001236 74 180 0.0 2.6 0.00 0.00 0.00 61 1012.3
20260505001136 74 180 0.0 2.6 0.00 0.00 0.00 61 1012.5
20260505001036 73 0 0.0 2.6 0.00 0.00 0.00 62 1012.3
20260505000936 73 0 0.0 3.5 0.00 0.00 0.00 62 1012.4
20260505000836 73 180 0.0 3.5 0.00 0.00 0.00 62 1012.1
20260505000736 73 180 0.9 3.5 0.00 0.00 0.00 62 1012.3
20260505000636 73 0 0.9 3.5 0.00 0.00 0.00 62 1012.3
20260505000536 73 0 0.9 3.5 0.00 0.00 0.00 63 1012.2
20260505000436 73 180 0.9 3.5 0.00 0.00 0.00 63 1012.3
20260505000336 73 180 0.0 3.5 0.00 0.00 0.00 63 1012.2
20260505000236 73 180 0.0 3.5 0.00 0.00 0.00 63 1012.3
20260505000136 73 0 0.9 3.5 0.00 0.00 0.00 63 1012.2
20260505000036 73 180 0.9 3.5 0.00 0.00 0.00 63 1012.4
20260504235936 73 0 0.9 3.5 0.00 0.00 0.00 63 1012.1
20260504235836 73 0 0.9 3.5 0.00 0.00 0.00 63 1012.2
20260504235736 73 0 0.9 3.5 0.00 0.00 0.00 64 1012.1
20260504235636 72 225 0.0 2.6 0.00 0.00 0.00 64 1012.2
20260504235536 72 180 0.0 2.6 0.00 0.00 0.00 64 1012.1
20260504235435 72 180 0.0 2.6 0.00 0.00 0.00 65 1012.2
20260504235336 72 180 0.0 2.6 0.00 0.00 0.00 65 1012.2
20260504235236 72 180 0.0 2.6 0.00 0.00 0.00 66 1012.1
20260504235136 72 180 0.0 2.6 0.00 0.00 0.00 66 1012.2
20260504235036 72 0 0.0 2.6 0.00 0.00 0.00 66 1012.1
20260504234936 72 180 0.9 2.6 0.00 0.00 0.00 66 1012.2
20260504234835 72 0 0.9 2.6 0.00 0.00 0.00 66 1012.2
20260504234736 71 0 0.0 2.6 0.00 0.00 0.00 67 1012.1
20260504234636 71 180 0.0 2.6 0.00 0.00 0.00 67 1012.0
20260504234536 71 180 0.9 2.6 0.00 0.00 0.00 67 1012.1
20260504234436 71 180 0.0 2.6 0.00 0.00 0.00 67 1012.1
20260504234336 71 180 0.0 2.6 0.00 0.00 0.00 68 1012.0
20260504234236 71 0 0.0 2.6 0.00 0.00 0.00 68 1012.1
20260504234136 71 180 0.0 2.6 0.00 0.00 0.00 68 1012.1
20260504234036 70 180 0.0 2.6 0.00 0.00 0.00 69 1012.1
20260504233936 70 0 0.0 2.6 0.00 0.00 0.00 69 1012.0
20260504233836 70 180 0.9 2.6 0.00 0.00 0.00 69 1012.2
20260504233736 70 0 0.9 2.6 0.00 0.00 0.00 69 1012.0
20260504233636 70 180 0.0 2.6 0.00 0.00 0.00 69 1012.1
20260504233536 70 180 0.0 2.6 0.00 0.00 0.00 69 1012.0
20260504233436 70 0 0.9 2.6 0.00 0.00 0.00 69 1012.0
20260504233335 70 0 0.9 2.6 0.00 0.00 0.00 69 1012.0
20260504233235 70 180 0.0 2.6 0.00 0.00 0.00 70 1012.1
20260504233136 70 180 0.0 2.6 0.00 0.00 0.00 70 1012.0
20260504233036 70 180 0.9 2.6 0.00 0.00 0.00 70 1012.1
20260504232936 70 180 0.0 2.6 0.00 0.00 0.00 70 1012.0
20260504232835 70 0 0.9 2.6 0.00 0.00 0.00 70 1011.9
20260504232736 69 180 0.9 2.6 0.00 0.00 0.00 70 1012.0
20260504232636 69 180 0.0 2.6 0.00 0.00 0.00 70 1012.0
20260504232536 69 180 0.0 2.6 0.00 0.00 0.00 70 1011.9
20260504232436 69 180 0.0 2.6 0.00 0.00 0.00 70 1012.0
20260504232336 69 0 0.9 2.6 0.00 0.00 0.00 71 1011.9
20260504232236 69 180 0.0 2.6 0.00 0.00 0.00 71 1011.9
20260504232136 69 180 0.0 2.6 0.00 0.00 0.00 71 1011.9
20260504231936 69 180 0.0 2.6 0.00 0.00 0.00 72 1011.9
20260504231836 69 180 0.0 2.6 0.00 0.00 0.00 72 1011.8
20260504231736 68 0 0.0 2.6 0.00 0.00 0.00 72 1011.9
20260504231636 68 180 0.0 2.6 0.00 0.00 0.00 72 1011.9
20260504231536 68 0 0.0 2.6 0.00 0.00 0.00 72 1012.0
20260504231436 68 180 0.0 2.6 0.00 0.00 0.00 73 1011.9
20260504231336 68 180 0.0 2.6 0.00 0.00 0.00 73 1011.9
20260504231236 68 0 0.0 2.6 0.00 0.00 0.00 73 1012.0
20260504231136 68 0 0.0 2.6 0.00 0.00 0.00 73 1012.0
20260504231036 68 180 0.0 2.6 0.00 0.00 0.00 73 1011.9
20260504230936 68 180 0.0 2.6 0.00 0.00 0.00 73 1011.9
20260504230836 67 180 0.9 2.6 0.00 0.00 0.00 73 1011.9
20260504230736 67 180 0.9 2.6 0.00 0.00 0.00 73 1011.9
20260504230636 67 180 0.9 2.6 0.00 0.00 0.00 73 1011.9
20260504230536 67 0 0.9 2.6 0.00 0.00 0.00 73 1011.8
20260504230436 67 180 0.9 2.6 0.00 0.00 0.00 74 1011.8
20260504230336 67 180 0.9 2.6 0.00 0.00 0.00 74 1011.8
20260504230236 67 180 0.9 2.6 0.00 0.00 0.00 74 1011.8
20260504230136 67 180 0.9 3.5 0.00 0.00 0.00 74 1011.8
20260504230036 67 180 0.9 3.5 0.00 0.00 0.00 74 1011.8
20260504225936 67 180 0.9 3.5 0.00 0.00 0.00 74 1011.8
20260504225836 66 180 0.0 3.5 0.00 0.00 0.00 74 1011.7
20260504225735 66 180 0.0 3.5 0.00 0.00 0.00 74 1011.7
20260504225636 66 180 0.9 3.5 0.00 0.00 0.00 74 1011.8
20260504225536 66 180 0.9 3.5 0.00 0.00 0.00 74 1011.8
20260504225436 66 180 1.7 3.5 0.00 0.00 0.00 75 1011.7
20260504225335 66 180 1.7 3.5 0.00 0.00 0.00 75 1011.7
20260504225235 66 180 0.9 3.5 0.00 0.00 0.00 75 1011.7
20260504225135 66 180 0.9 3.5 0.00 0.00 0.00 75 1011.7
20260504225036 66 0 0.9 3.5 0.00 0.00 0.00 75 1011.7
20260504224936 66 180 0.9 3.5 0.00 0.00 0.00 75 1011.7
20260504224835 66 180 0.9 3.5 0.00 0.00 0.00 75 1011.7
20260504224735 66 180 1.7 3.5 0.00 0.00 0.00 75 1011.6
20260504224635 66 180 2.6 3.5 0.00 0.00 0.00 75 1011.7
20260504224536 66 180 1.7 3.5 0.00 0.00 0.00 75 1011.6
20260504224436 66 180 0.0 3.5 0.00 0.00 0.00 75 1011.6
20260504224335 65 180 0.0 3.5 0.00 0.00 0.00 76 1011.8
20260504224235 65 90 0.9 3.5 0.00 0.00 0.00 76 1011.7
20260504224135 65 0 0.9 3.5 0.00 0.00 0.00 76 1011.6
20260504224035 65 180 1.7 3.5 0.00 0.00 0.00 76 1011.6
20260504223936 65 180 0.9 3.5 0.00 0.00 0.00 76 1011.7
20260504223836 65 180 0.9 3.5 0.00 0.00 0.00 76 1011.6
20260504223735 65 180 0.9 3.5 0.00 0.00 0.00 76 1011.6
20260504223635 65 180 1.7 3.5 0.00 0.00 0.00 76 1011.6
20260504223535 65 180 1.7 3.5 0.00 0.00 0.00 76 1011.5
20260504223435 65 180 1.7 3.5 0.00 0.00 0.00 76 1011.6
20260504223336 65 180 0.9 3.5 0.00 0.00 0.00 76 1011.5
20260504223235 65 180 0.9 3.5 0.00 0.00 0.00 77 1011.6
20260504223135 64 180 1.7 3.5 0.00 0.00 0.00 77 1011.5
20260504223035 64 180 1.7 3.5 0.00 0.00 0.00 77 1011.4
20260504222935 64 180 0.9 2.6 0.00 0.00 0.00 77 1011.5
20260504222835 64 180 0.0 2.6 0.00 0.00 0.00 77 1011.5
20260504222736 64 180 0.0 2.6 0.00 0.00 0.00 77 1011.6
20260504222635 64 180 0.9 2.6 0.00 0.00 0.00 78 1011.5
20260504222535 64 0 0.0 2.6 0.00 0.00 0.00 78 1011.5
20260504222435 64 180 0.0 2.6 0.00 0.00 0.00 78 1011.6
20260504222335 64 180 0.0 2.6 0.00 0.00 0.00 78 1011.4
20260504222235 64 180 0.0 2.6 0.00 0.00 0.00 78 1011.6
20260504222136 64 180 0.9 2.6 0.00 0.00 0.00 78 1011.5
20260504222035 64 180 0.0 2.6 0.00 0.00 0.00 78 1011.5
20260504221935 63 90 0.0 2.6 0.00 0.00 0.00 78 1011.5
20260504221835 63 180 0.9 2.6 0.00 0.00 0.00 79 1011.6
20260504221735 63 180 0.0 2.6 0.00 0.00 0.00 79 1011.5
20260504221635 63 180 0.0 2.6 0.00 0.00 0.00 79 1011.3
20260504221535 63 180 0.0 2.6 0.00 0.00 0.00 79 1011.4
20260504221435 63 90 0.0 2.6 0.00 0.00 0.00 79 1011.4
20260504221335 63 180 0.9 2.6 0.00 0.00 0.00 79 1011.4
20260504221235 63 180 0.0 2.6 0.00 0.00 0.00 80 1011.6
20260504221135 63 180 0.0 2.6 0.00 0.00 0.00 80 1011.5
20260504221035 62 180 0.0 2.6 0.00 0.00 0.00 80 1011.3
20260504220935 62 180 0.0 2.6 0.00 0.00 0.00 80 1011.3
20260504220835 62 180 0.0 2.6 0.00 0.00 0.00 80 1011.3
20260504220735 62 180 0.0 2.6 0.00 0.00 0.00 80 1011.4
20260504220635 62 90 0.0 2.6 0.00 0.00 0.00 81 1011.4
20260504220535 62 0 0.0 2.6 0.00 0.00 0.00 81 1011.3
20260504220435 62 180 0.0 2.6 0.00 0.00 0.00 81 1011.5
20260504220336 62 180 0.0 2.6 0.00 0.00 0.00 81 1011.4
20260504220235 62 180 0.0 1.7 0.00 0.00 0.00 81 1011.5
20260504220135 61 180 0.0 1.7 0.00 0.00 0.00 81 1011.6
20260504220035 61 90 0.0 1.7 0.00 0.00 0.00 81 1011.6
20260504215935 61 180 0.0 0.9 0.00 0.00 0.00 81 1011.7
20260504215835 61 180 0.0 1.7 0.00 0.00 0.00 81 1011.6
20260504215735 61 180 0.0 1.7 0.00 0.00 0.00 81 1011.7
20260504215635 61 180 0.0 1.7 0.00 0.00 0.00 81 1011.7
20260504215535 61 180 0.0 1.7 0.00 0.00 0.00 81 1011.8
20260504215435 61 180 0.0 1.7 0.00 0.00 0.00 81 1011.7
20260504215335 61 180 0.0 1.7 0.00 0.00 0.00 81 1011.7
20260504215235 61 180 0.0 1.7 0.00 0.00 0.00 81 1011.8
20260504215135 61 180 0.0 1.7 0.00 0.00 0.00 81 1011.6
20260504215035 0 116 25.2 0.0 0.00 0.00 0.00
20260504214935 61 180 0.0 2.6 0.00 0.00 0.00 81 1011.7
20260504214835 61 180 0.0 2.6 0.00 0.00 0.00 81 1011.7
20260504214735 61 180 0.0 2.6 0.00 0.00 0.00 81 1011.6
20260504214635 61 180 0.0 2.6 0.00 0.00 0.00 81 1011.5
20260504214535 61 0 0.0 2.6 0.00 0.00 0.00 81 1011.6
20260504214435 61 180 0.0 2.6 0.00 0.00 0.00 81 1011.6
20260504214335 61 0 0.0 2.6 0.00 0.00 0.00 81 1011.7
20260504214235 61 0 0.0 2.6 0.00 0.00 0.00 81 1011.6
20260504214136 61 0 0.0 2.6 0.00 0.00 0.00 81 1011.6
20260504214035 61 180 0.0 2.6 0.00 0.00 0.00 81 1011.6
20260504213935 61 0 0.0 2.6 0.00 0.00 0.00 81 1011.8
20260504213835 61 180 0.0 2.6 0.00 0.00 0.00 81 1011.6
20260504213735 61 180 0.0 2.6 0.00 0.00 0.00 81 1011.5
20260504213635 61 0 0.9 2.6 0.00 0.00 0.00 81 1011.5
20260504213535 60 180 0.0 2.6 0.00 0.00 0.00 81 1011.5
20260504213435 60 180 0.0 2.6 0.00 0.00 0.00 81 1011.7
20260504213336 60 180 0.0 2.6 0.00 0.00 0.00 81 1011.6
20260504213236 60 180 0.0 2.6 0.00 0.00 0.00 80 1011.5
20260504213135 60 180 0.0 2.6 0.00 0.00 0.00 80 1011.5
20260504213035 60 180 0.0 2.6 0.00 0.00 0.00 80 1011.8
20260504212935 60 180 0.0 2.6 0.00 0.00 0.00 80 1011.6
20260504212835 60 180 0.0 2.6 0.00 0.00 0.00 80 1011.5
20260504212735 60 180 0.9 2.6 0.00 0.00 0.00 80 1011.6
20260504212635 60 0 0.9 2.6 0.00 0.00 0.00 80 1011.6
20260504212535 60 180 0.9 2.6 0.00 0.00 0.00 80 1011.5
20260504212435 60 180 0.9 2.6 0.00 0.00 0.00 80 1011.5
20260504212336 60 180 0.9 2.6 0.00 0.00 0.00 80 1011.6
20260504212235 60 180 0.0 1.7 0.00 0.00 0.00 80 1011.5
20260504212135 60 180 0.0 0.0 0.00 0.00 0.00 80 1011.4
20260504212035 60 180 0.0 0.9 0.00 0.00 0.00 80 1011.6
20260504211935 60 0 0.0 1.7 0.00 0.00 0.00 80 1011.4
20260504211835 60 180 0.0 1.7 0.00 0.00 0.00 80 1011.4
20260504211735 60 180 0.0 1.7 0.00 0.00 0.00 80 1011.5
20260504211635 60 180 0.0 1.7 0.00 0.00 0.00 79 1011.6
20260504211535 60 180 0.0 2.6 0.00 0.00 0.00 79 1011.5
20260504211435 60 0 0.0 2.6 0.00 0.00 0.00 79 1011.6
20260504211335 60 180 0.0 2.6 0.00 0.00 0.00 79 1011.5
20260504211236 61 180 0.0 2.6 0.00 0.00 0.00 79 1011.5
20260504211135 60 0 0.0 2.6 0.00 0.00 0.00 79 1011.5
20260504211035 61 0 0.0 2.6 0.00 0.00 0.00 79 1011.4
20260504210935 61 180 0.0 2.6 0.00 0.00 0.00 79 1011.4
20260504210835 61 180 0.0 2.6 0.00 0.00 0.00 79 1011.5
20260504210735 61 0 0.0 2.6 0.00 0.00 0.00 79 1011.4
20260504210635 61 180 0.0 2.6 0.00 0.00 0.00 79 1011.5
20260504210535 61 180 0.0 2.6 0.00 0.00 0.00 79 1011.5
20260504210435 61 180 0.9 2.6 0.00 0.00 0.00 79 1011.4
20260504210335 61 180 0.0 2.6 0.00 0.00 0.00 78 1011.5
20260504210235 61 180 0.0 2.6 0.00 0.00 0.00 78 1011.3
20260504210135 61 180 0.0 2.6 0.00 0.00 0.00 78 1011.4
20260504210035 61 180 0.0 2.6 0.00 0.00 0.00 78 1011.3
20260504205935 61 180 0.0 2.6 0.00 0.00 0.00 78 1011.4
20260504205835 61 180 0.0 2.6 0.00 0.00 0.00 78 1011.4
20260504205735 61 180 0.0 2.6 0.00 0.00 0.00 78 1011.3
20260504205635 61 180 0.0 2.6 0.00 0.00 0.00 78 1011.3
20260504205535 61 180 0.0 2.6 0.00 0.00 0.00 78 1011.3
20260504205435 61 180 0.9 2.6 0.00 0.00 0.00 78 1011.4
20260504205335 61 180 0.9 2.6 0.00 0.00 0.00 78 1011.2
20260504205235 61 180 0.9 2.6 0.00 0.00 0.00 78 1011.3
20260504205135 61 180 0.9 2.6 0.00 0.00 0.00 78 1011.4
20260504205035 61 180 1.7 2.6 0.00 0.00 0.00 78 1011.4
20260504204935 61 180 0.9 2.6 0.00 0.00 0.00 78 1011.3
20260504204835 61 180 0.0 2.6 0.00 0.00 0.00 78 1011.4
20260504204735 61 0 0.0 2.6 0.00 0.00 0.00 77 1011.4
20260504204635 61 180 0.0 2.6 0.00 0.00 0.00 77 1011.4
20260504204535 61 180 0.0 2.6 0.00 0.00 0.00 77 1011.3
20260504204435 61 180 0.0 2.6 0.00 0.00 0.00 77 1011.4
20260504204335 61 180 0.0 2.6 0.00 0.00 0.00 77 1011.3
20260504204235 61 180 0.0 2.6 0.00 0.00 0.00 77 1011.4
20260504204135 61 180 0.9 2.6 0.00 0.00 0.00 77 1011.4
20260504204035 61 180 0.9 2.6 0.00 0.00 0.00 77 1011.4
20260504203935 61 180 0.0 0.9 0.00 0.00 0.00 77 1011.4
20260504203835 61 180 0.0 0.9 0.00 0.00 0.00 77 1011.5
20260504203735 61 0 0.0 0.0 0.00 0.00 0.00 77 1011.6
20260504203635 61 0 0.0 0.0 0.00 0.00 0.00 77 1011.4
20260504203535 61 0 0.0 0.0 0.00 0.00 0.00 76 1011.2
20260504203435 61 0 0.0 0.0 0.00 0.00 0.00 76 1011.2
20260504203335 61 180 0.0 0.0 0.00 0.00 0.00 76 1011.3
20260504203235 61 180 0.0 0.0 0.00 0.00 0.00 76 1011.4
20260504203135 61 180 0.0 0.0 0.00 0.00 0.00 76 1011.4
20260504203035 61 0 0.0 0.0 0.00 0.00 0.00 76 1011.2
20260504202935 61 0 0.0 0.0 0.00 0.00 0.00 76 1011.4
20260504202835 61 0 0.0 0.0 0.00 0.00 0.00 76 1011.3
20260504202735 61 0 0.0 0.0 0.00 0.00 0.00 76 1011.4
20260504202635 61 180 0.0 0.0 0.00 0.00 0.00 76 1011.2
20260504202535 61 180 0.0 0.0 0.00 0.00 0.00 76 1011.2
20260504202435 61 180 0.0 0.0 0.00 0.00 0.00 76 1011.3
20260504202335 61 180 0.0 0.0 0.00 0.00 0.00 76 1011.4
20260504202235 61 180 0.0 0.0 0.00 0.00 0.00 76 1011.3
20260504202135 61 0 0.0 0.0 0.00 0.00 0.00 76 1011.2
20260504202035 61 180 0.0 0.0 0.00 0.00 0.00 75 1011.2
20260504201934 0 112 19.1 0.0 0.00 0.00 0.00
20260504201835 61 180 0.0 0.0 0.00 0.00 0.00 75 1011.2
20260504201735 61 180 0.0 0.0 0.00 0.00 0.00 75 1011.4
20260504201635 61 180 0.0 0.0 0.00 0.00 0.00 75 1011.4
20260504201535 61 180 0.0 0.0 0.00 0.00 0.00 75 1011.2
20260504201435 61 180 0.0 0.0 0.00 0.00 0.00 75 1011.3
20260504201335 61 0 0.0 0.0 0.00 0.00 0.00 75 1011.2
20260504201235 61 180 0.0 0.0 0.00 0.00 0.00 75 1011.1
20260504201135 61 180 0.0 0.0 0.00 0.00 0.00 75 1011.3
20260504201035 61 180 0.0 0.0 0.00 0.00 0.00 75 1011.4
20260504200935 61 0 0.0 0.0 0.00 0.00 0.00 74 1011.3
20260504200835 62 180 0.0 0.0 0.00 0.00 0.00 74 1011.2
20260504200735 62 180 0.0 1.7 0.00 0.00 0.00 74 1011.4
20260504200635 62 180 0.0 1.7 0.00 0.00 0.00 74 1011.3
20260504200534 62 180 0.0 2.6 0.00 0.00 0.00 74 1011.3
20260504200435 62 180 0.0 2.6 0.00 0.00 0.00 74 1011.2
20260504200335 62 180 0.0 2.6 0.00 0.00 0.00 74 1011.1
20260504200235 62 180 0.0 2.6 0.00 0.00 0.00 74 1011.2
20260504200135 62 180 0.0 2.6 0.00 0.00 0.00 74 1011.2
20260504200035 62 180 0.0 2.6 0.00 0.00 0.00 74 1011.2
20260504195935 62 180 0.0 2.6 0.00 0.00 0.00 74 1011.1
20260504195734 62 180 0.9 2.6 0.00 0.00 0.00 74 1011.3
20260504195634 62 180 0.9 2.6 0.00 0.00 0.00 74 1011.2
20260504195534 62 180 0.0 2.6 0.00 0.00 0.00 74 1011.4
20260504195435 62 180 0.0 2.6 0.00 0.00 0.00 74 1011.1
20260504195335 62 0 0.9 2.6 0.00 0.00 0.00 74 1011.1
20260504195235 62 180 0.9 2.6 0.00 0.00 0.00 74 1011.2
20260504195135 62 180 0.9 2.6 0.00 0.00 0.00 74 1011.3
20260504195035 62 180 0.9 2.6 0.00 0.00 0.00 74 1011.1
20260504194935 62 180 0.0 2.6 0.00 0.00 0.00 74 1011.2
20260504194834 62 180 0.0 2.6 0.00 0.00 0.00 74 1011.3
20260504194734 62 0 0.0 0.0 0.00 0.00 0.00 74 1011.3
20260504194634 62 0 0.0 0.0 0.00 0.00 0.00 74 1011.2
20260504194534 62 0 0.0 0.9 0.00 0.00 0.00 74 1011.2
20260504194434 62 180 0.0 0.9 0.00 0.00 0.00 73 1011.3
20260504194335 62 180 0.0 0.9 0.00 0.00 0.00 73 1011.2
20260504194235 62 180 0.0 0.9 0.00 0.00 0.00 73 1011.3
20260504194135 62 180 0.0 1.7 0.00 0.00 0.00 73 1011.1
20260504194035 62 0 0.0 1.7 0.00 0.00 0.00 73 1011.2
20260504193935 62 180 0.0 1.7 0.00 0.00 0.00 73 1011.1
20260504193834 62 180 0.0 2.6 0.00 0.00 0.00 73 1011.3
20260504193734 62 180 0.0 2.6 0.00 0.00 0.00 73 1011.2
20260504193634 62 0 0.0 2.6 0.00 0.00 0.00 73 1011.2
20260504193534 62 180 0.0 2.6 0.00 0.00 0.00 73 1011.2
20260504193434 62 180 0.0 2.6 0.00 0.00 0.00 73 1011.1
20260504193335 62 180 0.0 2.6 0.00 0.00 0.00 73 1011.1
20260504193235 62 180 0.0 2.6 0.00 0.00 0.00 73 1011.0
20260504193135 62 180 0.0 2.6 0.00 0.00 0.00 73 1011.1
20260504193035 62 180 0.0 2.6 0.00 0.00 0.00 73 1011.1
20260504192935 62 0 0.0 2.6 0.00 0.00 0.00 73 1011.2
20260504192834 62 180 0.0 2.6 0.00 0.00 0.00 73 1011.1
20260504192734 62 180 0.0 0.0 0.00 0.00 0.00 73 1011.1
20260504192634 62 180 0.0 0.9 0.00 0.00 0.00 73 1011.2
20260504192534 62 180 0.0 0.9 0.00 0.00 0.00 73 1011.1
20260504192434 62 180 0.0 0.9 0.00 0.00 0.00 73 1011.1
20260504192335 62 180 0.0 0.9 0.00 0.00 0.00 73 1011.1
20260504192235 62 180 0.0 0.9 0.00 0.00 0.00 73 1011.1
20260504192135 62 180 0.0 0.9 0.00 0.00 0.00 73 1011.1
20260504192034 62 180 0.0 0.9 0.00 0.00 0.00 73 1011.3
20260504191934 62 180 0.0 0.9 0.00 0.00 0.00 73 1011.2
20260504191834 62 0 0.0 0.9 0.00 0.00 0.00 73 1011.2
20260504191734 62 180 0.0 0.9 0.00 0.00 0.00 73 1011.0
20260504191634 62 180 0.0 0.0 0.00 0.00 0.00 73 1011.1
20260504191534 62 45 0.0 0.0 0.00 0.00 0.00 73 1011.3
20260504191434 62 0 0.0 0.0 0.00 0.00 0.00 73 1011.2
20260504191335 62 45 0.0 0.0 0.00 0.00 0.00 73 1011.2
20260504191235 62 45 0.0 0.0 0.00 0.00 0.00 73 1011.3
20260504191134 62 45 0.0 0.0 0.00 0.00 0.00 73 1011.2
20260504191034 62 0 0.0 0.0 0.00 0.00 0.00 73 1011.2
20260504190934 62 180 0.0 0.0 0.00 0.00 0.00 73 1011.2
20260504190834 62 45 0.0 0.0 0.00 0.00 0.00 73 1011.3
20260504190734 62 45 0.0 0.0 0.00 0.00 0.00 73 1011.3
20260504190634 62 45 0.0 0.0 0.00 0.00 0.00 73 1011.3
20260504190534 62 45 0.0 1.7 0.00 0.00 0.00 73 1011.4
20260504190434 62 45 0.0 1.7 0.00 0.00 0.00 72 1011.2
20260504190335 62 45 0.0 1.7 0.00 0.00 0.00 72 1011.3
20260504190235 62 0 0.0 1.7 0.00 0.00 0.00 72 1011.3
20260504190134 62 225 0.0 2.6 0.00 0.00 0.00 72 1011.2
20260504190034 62 0 2.6 0.0 0.00 0.00 0.00 72 1011.3
20260504185934 62 45 0.0 2.6 0.00 0.00 0.00 72 1011.3
20260504185834 62 45 0.0 2.6 0.00 0.00 0.00 72 1011.3
20260504185734 62 45 0.0 2.6 0.00 0.00 0.00 72 1011.3
20260504185634 62 45 0.0 2.6 0.00 0.00 0.00 72 1011.4
20260504185534 62 0 0.0 2.6 0.00 0.00 0.00 72 1011.4
20260504185434 62 45 0.0 2.6 0.00 0.00 0.00 72 1011.4
20260504185335 62 45 0.0 2.6 0.00 0.00 0.00 72 1011.4
20260504185234 62 45 0.9 2.6 0.00 0.00 0.00 72 1011.3
20260504185134 62 45 0.9 2.6 0.00 0.00 0.00 72 1011.4
20260504185034 62 45 0.9 2.6 0.00 0.00 0.00 72 1011.5
20260504184934 62 45 0.9 2.6 0.00 0.00 0.00 71 1011.4
20260504184834 63 45 0.9 2.6 0.00 0.00 0.00 71 1011.4
20260504184734 63 45 0.9 2.6 0.00 0.00 0.00 71 1011.4
20260504184634 63 45 0.9 2.6 0.00 0.00 0.00 71 1011.4
20260504184534 63 45 0.9 2.6 0.00 0.00 0.00 71 1011.6
20260504184434 63 45 0.9 2.6 0.00 0.00 0.00 71 1011.4
20260504184334 63 45 0.9 2.6 0.00 0.00 0.00 71 1011.5
20260504184234 63 45 0.9 2.6 0.00 0.00 0.00 71 1011.4
20260504184134 63 45 0.0 2.6 0.00 0.00 0.00 71 1011.5
20260504184034 63 45 0.0 1.7 0.00 0.00 0.00 71 1011.4
20260504183934 63 45 0.0 2.6 0.00 0.00 0.00 71 1011.4
20260504183834 63 45 0.0 2.6 0.00 0.00 0.00 71 1011.5
20260504183734 63 45 0.0 2.6 0.00 0.00 0.00 71 1011.4
20260504183634 63 0 0.0 2.6 0.00 0.00 0.00 71 1011.4
20260504183534 63 0 0.0 2.6 0.00 0.00 0.00 71 1011.4
20260504183434 63 45 0.0 2.6 0.00 0.00 0.00 71 1011.4
20260504183334 63 45 0.0 2.6 0.00 0.00 0.00 71 1011.3
20260504183234 63 225 0.0 2.6 0.00 0.00 0.00 71 1011.5
20260504183134 63 45 0.0 2.6 0.00 0.00 0.00 71 1011.5
20260504183034 62 45 0.0 2.6 0.00 0.00 0.00 71 1011.6
20260504182934 62 45 0.0 2.6 0.00 0.00 0.00 71 1011.6
20260504182834 62 0 0.0 2.6 0.00 0.00 0.00 71 1011.5
20260504182734 62 45 0.0 2.6 0.00 0.00 0.00 71 1011.6
20260504182634 62 45 0.0 2.6 0.00 0.00 0.00 71 1011.4
20260504182534 62 45 0.0 2.6 0.00 0.00 0.00 71 1011.5
20260504182434 62 0 0.9 2.6 0.00 0.00 0.00 71 1011.5
20260504182334 62 45 0.9 2.6 0.00 0.00 0.00 71 1011.4
20260504182234 62 45 0.9 2.6 0.00 0.00 0.00 71 1011.6
20260504182134 62 45 0.0 2.6 0.00 0.00 0.00 71 1011.6
20260504182034 62 45 0.0 0.9 0.00 0.00 0.00 71 1011.5
20260504181934 62 0 0.0 1.7 0.00 0.00 0.00 71 1011.5
20260504181834 62 45 0.0 1.7 0.00 0.00 0.00 71 1011.6
20260504181734 62 0 0.0 1.7 0.00 0.00 0.00 71 1011.6
20260504181634 62 45 0.0 1.7 0.00 0.00 0.00 71 1011.5
20260504181534 62 0 0.0 1.7 0.00 0.00 0.00 71 1011.6
20260504181434 62 0 0.0 1.7 0.00 0.00 0.00 71 1011.5
20260504181334 62 45 0.0 1.7 0.00 0.00 0.00 71 1011.5
20260504181234 62 45 0.0 1.7 0.00 0.00 0.00 71 1011.7
20260504181134 62 45 0.0 1.7 0.00 0.00 0.00 71 1011.5
20260504181034 62 0 0.0 1.7 0.00 0.00 0.00 71 1011.6
20260504180934 62 45 0.0 0.0 0.00 0.00 0.00 71 1011.6
20260504180834 62 45 0.0 0.0 0.00 0.00 0.00 71 1011.6
20260504180734 62 0 0.0 0.0 0.00 0.00 0.00 71 1011.7
20260504180634 62 0 0.0 0.0 0.00 0.00 0.00 71 1011.5
20260504180534 62 45 0.0 0.0 0.00 0.00 0.00 71 1011.7
20260504180434 62 45 0.0 0.0 0.00 0.00 0.00 71 1011.6
20260504180334 62 0 0.0 0.0 0.00 0.00 0.00 71 1011.7
20260504180234 62 0 0.0 0.0 0.00 0.00 0.00 71 1011.7
20260504180134 62 0 0.0 0.0 0.00 0.00 0.00 71 1011.5
20260504180034 62 0 0.0 0.9 0.00 0.00 0.00 71 1011.6
20260504175934 62 45 0.0 0.9 0.00 0.00 0.00 71 1011.7
20260504175834 62 0 0.0 0.9 0.00 0.00 0.00 71 1011.6
20260504175734 62 45 0.0 0.9 0.00 0.00 0.00 70 1011.7
20260504175634 62 45 0.0 0.9 0.00 0.00 0.00 70 1011.6
20260504175534 62 0 0.0 0.9 0.00 0.00 0.00 70 1011.6
20260504175434 62 0 0.0 0.9 0.00 0.00 0.00 70 1011.7
20260504175334 62 0 0.0 0.9 0.00 0.00 0.00 70 1011.7
20260504175234 62 0 0.0 0.9 0.00 0.00 0.00 70 1011.7
20260504175134 62 0 0.0 0.9 0.00 0.00 0.00 70 1011.6
20260504175034 62 45 0.0 0.0 0.00 0.00 0.00 70 1011.7
20260504174934 63 0 0.0 0.0 0.00 0.00 0.00 70 1011.7
20260504174834 63 0 0.0 0.0 0.00 0.00 0.00 70 1011.6
20260504174734 63 0 0.0 0.0 0.00 0.00 0.00 70 1011.8
20260504174634 63 0 0.0 0.0 0.00 0.00 0.00 70 1011.7
20260504174534 63 0 0.0 0.0 0.00 0.00 0.00 70 1011.8
20260504174334 63 0 0.0 0.0 0.00 0.00 0.00 69 1011.8
20260504174234 63 45 0.0 0.0 0.00 0.00 0.00 69 1011.9
20260504174134 63 0 0.0 1.7 0.00 0.00 0.00 69 1011.7
20260504174034 63 0 0.0 2.6 0.00 0.00 0.00 69 1011.7
20260504173934 63 0 0.0 2.6 0.00 0.00 0.00 69 1011.6
20260504173834 63 0 0.0 2.6 0.00 0.00 0.00 69 1011.7
20260504173734 63 0 0.0 2.6 0.00 0.00 0.00 69 1011.8
20260504173634 63 0 0.0 2.6 0.00 0.00 0.00 69 1011.7
20260504173534 63 45 0.0 2.6 0.00 0.00 0.00 69 1011.7
20260504173434 63 0 0.0 2.6 0.00 0.00 0.00 69 1011.7
20260504173334 63 0 0.0 2.6 0.00 0.00 0.00 69 1011.8
20260504173234 63 45 0.0 2.6 0.00 0.00 0.00 69 1011.6
20260504173134 63 45 0.0 2.6 0.00 0.00 0.00 69 1011.8
20260504173034 63 45 0.0 3.5 0.00 0.00 0.00 69 1011.7
20260504172934 63 45 0.9 3.5 0.00 0.00 0.00 69 1011.7
20260504172834 63 45 0.9 3.5 0.00 0.00 0.00 68 1011.7
20260504172734 63 45 0.9 3.5 0.00 0.00 0.00 68 1011.7
20260504172634 63 45 0.9 3.5 0.00 0.00 0.00 68 1011.7
20260504172534 63 0 0.0 3.5 0.00 0.00 0.00 68 1011.6
20260504172434 63 225 0.0 3.5 0.00 0.00 0.00 68 1011.7
20260504172334 63 45 0.9 3.5 0.00 0.00 0.00 68 1011.8
20260504172234 63 45 0.9 3.5 0.00 0.00 0.00 68 1011.6
20260504172134 63 45 0.9 3.5 0.00 0.00 0.00 68 1011.7
20260504172034 63 0 0.9 2.6 0.00 0.00 0.00 68 1011.7
20260504171934 63 0 0.9 2.6 0.00 0.00 0.00 68 1011.7
20260504171834 63 45 0.9 2.6 0.00 0.00 0.00 68 1011.7
20260504171734 63 0 0.0 2.6 0.00 0.00 0.00 68 1011.6
20260504171634 63 0 0.0 2.6 0.00 0.00 0.00 68 1011.9
20260504171534 63 0 0.9 2.6 0.00 0.00 0.00 68 1011.8
20260504171434 63 45 0.0 2.6 0.00 0.00 0.00 68 1011.8
20260504171334 63 45 0.0 2.6 0.00 0.00 0.00 68 1011.8
20260504171234 63 45 0.0 2.6 0.00 0.00 0.00 68 1011.8
20260504171134 63 45 0.0 2.6 0.00 0.00 0.00 68 1011.8
20260504171034 63 45 0.0 2.6 0.00 0.00 0.00 68 1011.8
20260504170934 63 0 0.0 2.6 0.00 0.00 0.00 68 1011.9
20260504170734 63 45 0.0 2.6 0.00 0.00 0.00 68 1011.9
20260504170634 64 45 0.0 2.6 0.00 0.00 0.00 67 1011.9
20260504170534 64 45 0.0 2.6 0.00 0.00 0.00 67 1011.9
20260504170434 64 45 0.0 2.6 0.00 0.00 0.00 67 1011.9
20260504170334 64 45 0.9 2.6 0.00 0.00 0.00 67 1011.9
20260504170233 64 45 0.9 2.6 0.00 0.00 0.00 67 1011.9
20260504170134 64 45 0.0 2.6 0.00 0.00 0.00 67 1012.0
20260504160434 65 45 0.0 2.6 0.00 0.00 0.00 64 1012.2
20260504160334 65 0 0.0 2.6 0.00 0.00 0.00 64 1012.1
20260504160234 65 45 0.0 2.6 0.00 0.00 0.00 64 1012.2
20260504160134 65 45 0.0 2.6 0.00 0.00 0.00 64 1012.3
20260504151133 66 45 0.0 2.6 0.00 0.00 0.00 62 1012.7
20260504151033 66 0 0.0 2.6 0.00 0.00 0.00 62 1012.8
20260504150933 66 45 0.0 2.6 0.00 0.00 0.00 62 1012.8
20260504150833 66 45 0.0 2.6 0.00 0.00 0.00 62 1012.9
20260504150734 66 45 0.0 2.6 0.00 0.00 0.00 62 1013.0
20260504150634 66 0 0.0 1.7 0.00 0.00 0.00 62 1012.9
20260504150534 66 0 0.0 1.7 0.00 0.00 0.00 62 1012.8
20260504150434 66 45 0.0 0.0 0.00 0.00 0.00 61 1013.0
20260504150333 66 45 0.0 0.0 0.00 0.00 0.00 61 1012.9
20260504150233 66 45 0.0 0.0 0.00 0.00 0.00 61 1012.9
20260504150133 66 45 0.0 0.0 0.00 0.00 0.00 61 1013.0
20260504141333 67 0 0.0 0.0 0.00 0.00 0.00 60 1013.1
20260504141233 67 45 0.0 0.0 0.00 0.00 0.00 60 1013.1
20260504141033 67 45 0.0 0.0 0.00 0.00 0.00 60 1013.0
20260504140933 67 45 0.0 0.9 0.00 0.00 0.00 60 1013.2
20260504140833 67 45 0.0 2.6 0.00 0.00 0.00 60 1013.1
20260504140733 67 45 0.0 2.6 0.00 0.00 0.00 60 1013.0
20260504140633 67 0 0.0 2.6 0.00 0.00 0.00 60 1013.1
20260504140533 67 45 0.0 2.6 0.00 0.00 0.00 60 1013.0
20260504140433 67 45 0.0 2.6 0.00 0.00 0.00 60 1013.1
20260504140333 67 45 0.0 2.6 0.00 0.00 0.00 60 1013.0
20260504140233 67 45 0.0 2.6 0.00 0.00 0.00 60 1013.1
20260504140133 67 45 0.0 2.6 0.00 0.00 0.00 61 1013.1
20260504130733 68 0 0.0 0.0 0.00 0.00 0.00 62 1013.4
20260504130633 68 45 0.0 0.0 0.00 0.00 0.00 62 1013.3
20260504130533 68 45 0.0 0.0 0.00 0.00 0.00 62 1013.3
20260504130432 68 45 0.0 0.0 0.00 0.00 0.00 62 1013.3
20260504130332 68 45 0.0 0.0 0.00 0.00 0.00 62 1013.4
20260504130233 68 0 0.0 0.0 0.00 0.00 0.00 62 1013.3
20260504130133 68 0 0.0 0.0 0.00 0.00 0.00 62 1013.5
20260504120232 71 0 0.9 2.6 0.00 0.00 0.00 54 1012.8
20260504120132 71 0 0.9 2.6 0.00 0.00 0.00 53 1012.8
20260504110632 73 0 0.0 0.0 0.00 0.00 0.00 50 1012.3
20260504110532 73 45 0.0 0.0 0.00 0.00 0.00 50 1012.3
20260504110432 73 45 0.0 0.0 0.00 0.00 0.00 49 1012.3
20260504110332 73 45 0.0 0.0 0.00 0.00 0.00 49 1012.3
20260504110232 73 45 0.0 0.0 0.00 0.00 0.00 49 1012.2
20260504110132 73 45 0.0 0.0 0.00 0.00 0.00 49 1012.3
20260504100532 77 0 0.0 1.7 0.00 0.00 0.00 45 1012.2
20260504100432 77 0 0.0 1.7 0.00 0.00 0.00 46 1012.2
20260504100331 77 225 0.0 1.7 0.00 0.00 0.00 46 1012.2
20260504100232 77 45 0.0 1.7 0.00 0.00 0.00 46 1012.3
20260504100132 77 45 0.0 1.7 0.00 0.00 0.00 46 1012.3
20260504090132 81 0 0.0 2.6 0.00 0.00 0.00 43 1012.2
20260504081931 82 90 0.0 3.5 0.00 0.00 0.00 41 1012.2
20260504081831 82 45 0.9 3.5 0.00 0.00 0.00 41 1012.2
20260504081731 82 90 0.9 3.5 0.00 0.00 0.00 41 1012.1
20260504081631 82 0 0.9 2.6 0.00 0.00 0.00 42 1012.3
20260504081531 82 45 0.9 2.6 0.00 0.00 0.00 41 1012.2
20260504081431 82 45 0.9 2.6 0.00 0.00 0.00 41 1012.1
20260504081331 82 0 0.9 2.6 0.00 0.00 0.00 42 1012.2
20260504081231 82 45 0.9 2.6 0.00 0.00 0.00 42 1012.2
20260504081131 82 45 0.9 2.6 0.00 0.00 0.00 42 1012.3
20260504081031 82 45 0.0 2.6 0.00 0.00 0.00 42 1012.2
20260504080931 81 90 0.0 2.6 0.00 0.00 0.00 42 1012.4
20260504080831 81 45 0.0 2.6 0.00 0.00 0.00 43 1012.3
20260504080731 81 90 0.0 2.6 0.00 0.00 0.00 43 1012.3
20260504080631 81 0 0.9 2.6 0.00 0.00 0.00 43 1012.1
20260504080531 81 315 0.9 3.5 0.00 0.00 0.00 43 1012.1
20260504080431 80 0 0.0 3.5 0.00 0.00 0.00 43 1012.2
20260504080331 80 0 0.0 3.5 0.00 0.00 0.00 43 1012.4
20260504080231 80 90 0.9 3.5 0.00 0.00 0.00 43 1012.2
20260504080131 80 90 0.9 3.5 0.00 0.00 0.00 42 1012.3
20260504070331 83 225 0.9 3.5 0.00 0.00 0.00 42 1012.6
20260504070230 83 0 0.9 3.5 0.00 0.00 0.00 42 1012.5
20260504070131 83 45 1.7 3.5 0.00 0.00 0.00 42 1012.6
20260504060231 83 45 0.0 4.3 0.00 0.00 0.00 43 1013.5
20260504060130 83 45 0.0 4.3 0.00 0.00 0.00 43 1013.4
20260504050730 81 0 0.9 4.3 0.00 0.00 0.00 45 1014.1
20260504050630 81 90 0.9 4.3 0.00 0.00 0.00 46 1014.2
20260504050530 81 45 1.7 4.3 0.00 0.00 0.00 47 1014.2
20260504050430 81 45 2.6 4.3 0.00 0.00 0.00 47 1014.1
20260504050330 81 90 1.7 4.3 0.00 0.00 0.00 46 1014.3
20260504050230 81 90 1.7 4.3 0.00 0.00 0.00 46 1014.1
20260504050130 81 90 0.9 4.3 0.00 0.00 0.00 46 1014.3
20260504045930 81 315 1.7 4.3 0.00 0.00 0.00 46 1014.1